"2014-12-10",00:01,4.568,3.068,4.541,3.04,3.24,4.434,75.93,-1.379,-0.98,311.8,332.1,-20.7,-0.249,0.,314.6,0,7999.,0.000,100,101.8684,10.65,12.7,11.003,12.86,183.8,7.918,9.86,182.267,0.438,3.791,4.241,5.071,7.613,10.784,12.065,2.61,-999.,-999.,6.405,-2.729,-4.044,-3.171,-2.701,0.678,0.68,0.679,0.743,0.688,0.689,0.688,0.741,0.638,0.,0.
"2014-12-10",00:02,4.585,3.072,4.56,3.043,3.24,4.464,75.78,-1.379,-0.98,312.,332.1,-20.5,-0.249,0.,314.9,0,7999.,0.000,100,101.8634,10.96,13.01,10.248,12.83,187.599,8.131,10.12,190.424,0.438,3.794,4.245,5.068,7.612,10.784,12.065,2.614,-999.,-999.,6.402,-2.731,-4.045,-3.179,-2.707,0.678,0.681,0.679,0.741,0.687,0.69,0.687,0.742,0.638,0.,0.
"2014-12-10",00:03,4.611,3.068,4.622,3.043,3.25,4.513,75.36,-1.367,-0.98,311.8,332.,-20.6,-0.457,0.,314.8,0,7999.,0.000,100,101.8566,11.45,13.26,10.29,12.84,186.129,7.638,9.92,191.736,0.437,3.791,4.242,5.064,7.626,10.784,12.065,2.614,-999.,-999.,6.399,-2.736,-4.048,-3.181,-2.71,0.678,0.68,0.678,0.743,0.688,0.688,0.688,0.745,0.637,0.,0.
"2014-12-10",00:04,4.565,3.065,4.564,3.047,3.246,9.21,70.53,-1.367,-0.998,311.8,331.8,-20.4,-0.333,0.,314.9,0,7999.,0.000,100,101.854,10.18,12.33,11.148,12.25,188.265,8.294,10.59,188.269,0.438,3.794,4.232,5.064,7.616,10.778,12.075,2.614,-999.,-999.,6.402,-2.741,-4.051,-3.187,-2.7,0.678,0.681,0.679,0.742,0.688,0.689,0.688,0.741,0.636,0.,0.
"2014-12-10",00:05,4.542,3.062,4.553,3.042,3.253,4.467,75.58,-1.385,-1.01,312.,331.7,-20.1,-0.125,0.,315.2,0,7999.,0.000,100,101.8501,9.73,12.01,8.485,10.24,185.859,6.727,9.04,187.4,0.438,3.788,4.241,5.064,7.619,10.784,12.075,2.61,-999.,-999.,6.412,-2.746,-4.052,-3.192,-2.682,0.678,0.681,0.679,0.742,0.688,0.689,0.688,0.742,0.638,0.,0.
"2014-12-10",00:06,4.568,3.052,4.537,3.024,3.263,4.44,75.75,-1.367,-0.968,312.4,332.,-20.0,-0.333,0.,315.2,0,7999.,0.000,100,101.8343,10.72,12.95,10.275,12.57,186.606,7.817,10.76,186.147,0.438,3.798,4.238,5.067,7.623,10.791,12.065,2.61,-999.,-999.,6.402,-2.748,-4.056,-3.194,-2.661,0.678,0.682,0.679,0.742,0.688,0.689,0.688,0.745,0.637,0.,0.
"2014-12-10",00:07,4.558,3.062,4.544,3.033,3.273,4.443,75.72,-1.362,-0.974,312.7,332.1,-19.8,-0.416,0.,315.6,0,7999.,0.000,100,101.8321,11.35,13.7,10.621,12.65,186.34,8.721,11.19,184.073,0.438,3.798,4.245,5.071,7.629,10.784,12.068,2.617,-999.,-999.,6.402,-2.754,-4.059,-3.202,-2.641,0.677,0.682,0.678,0.743,0.687,0.689,0.688,0.741,0.638,0.,0.
"2014-12-10",00:08,4.627,3.068,4.577,3.037,3.282,4.463,75.61,-1.362,-0.98,313.,332.1,-19.5,-0.499,0.,315.9,0,7999.,0.000,100,101.8327,9.64,12.01,10.497,11.98,181.397,7.596,9.58,185.601,0.437,3.798,4.251,5.077,7.626,10.788,12.068,2.624,-999.,-999.,6.405,-2.757,-4.061,-3.203,-2.617,0.678,0.682,0.678,0.743,0.688,0.689,0.687,0.748,0.636,0.,0.
"2014-12-10",00:09,4.578,3.094,4.613,3.07,3.282,4.509,75.41,-1.367,-1.016,313.3,332.,-19.1,-0.457,0.,316.4,0,7999.,0.000,100,101.8352,11.62,12.7,9.908,12.4,189.132,8.094,9.93,192.398,0.438,3.794,4.255,5.064,7.613,10.781,12.068,2.617,-999.,-999.,6.402,-2.763,-4.064,-3.209,-2.582,0.678,0.681,0.679,0.741,0.687,0.69,0.688,0.74,0.639,0.,0.
"2014-12-10",00:10,4.617,3.084,4.585,3.065,3.282,4.485,75.63,-1.367,-0.998,313.5,332.1,-19.0,-0.499,0.,316.5,0,7999.,0.000,100,101.8332,10.01,10.83,11.301,14.31,188.267,9.02,12.66,183.607,0.438,3.798,4.242,5.067,7.626,10.788,12.068,2.627,-999.,-999.,6.399,-2.767,-4.066,-3.212,-2.543,0.678,0.68,0.677,0.748,0.687,0.689,0.688,0.741,0.637,0.,0.
"2014-12-10",00:11,4.571,3.088,4.624,3.07,3.286,9.25,70.37,-1.368,-1.004,313.6,332.3,-19.1,-0.499,0.,316.7,0,7999.,0.000,100,101.8324,9.91,11.26,9.791,12.8,184.384,7.024,10.96,185.492,0.437,3.804,4.258,5.067,7.619,10.788,12.072,2.63,-999.,-999.,6.402,-2.767,-4.068,-3.219,-2.503,0.677,0.682,0.679,0.742,0.688,0.689,0.688,0.741,0.636,0.,0.
"2014-12-10",00:12,4.558,3.068,4.563,3.066,3.266,4.485,75.57,-1.379,-1.034,313.9,332.1,-18.5,-0.333,0.,317.,0,7999.,0.000,100,101.8417,9.85,11.14,8.362,12.06,183.115,6.647,9.31,184.737,0.438,3.797,4.238,5.071,7.629,10.781,12.072,2.63,-999.,-999.,6.399,-2.777,-4.071,-3.222,-2.459,0.676,0.685,0.677,0.746,0.688,0.689,0.688,0.743,0.637,0.,0.
"2014-12-10",00:13,4.634,3.101,4.604,3.068,3.243,4.494,75.53,-1.367,-0.998,314.1,332.4,-18.7,-0.457,0.,317.1,0,7999.,0.000,100,101.8368,10.72,12.14,10.396,11.74,186.935,8.662,10.48,184.333,0.438,3.794,4.235,5.071,7.606,10.784,12.071,2.63,-999.,-999.,6.402,-2.778,-4.071,-3.228,-2.414,0.678,0.68,0.679,0.741,0.689,0.689,0.688,0.742,0.637,0.,0.
"2014-12-10",00:14,4.686,3.101,4.606,3.078,3.25,4.508,75.45,-1.356,-0.992,314.4,332.4,-18.4,-0.499,0.,317.2,0,7999.,0.000,100,101.8365,10.79,12.95,10.651,11.99,187.728,8.159,10.11,185.127,0.438,3.794,4.251,5.071,7.619,10.784,12.075,2.63,-999.,-999.,6.405,-2.783,-4.076,-3.232,-2.377,0.677,0.68,0.678,0.742,0.687,0.69,0.688,0.742,0.637,0.,0.
"2014-12-10",00:15,4.591,3.088,4.615,3.083,3.266,4.519,75.41,-1.367,-0.992,314.8,332.5,-18.1,-0.499,0.,317.5,0,7999.,0.000,100,101.8378,10.91,13.2,10.451,12.63,186.197,8.164,10.04,183.511,0.438,3.788,4.252,5.068,7.622,10.781,12.075,2.633,-999.,-999.,6.402,-2.788,-4.08,-3.233,-2.345,0.677,0.683,0.678,0.743,0.688,0.69,0.688,0.743,0.637,0.,0.
"2014-12-10",00:16,4.588,3.081,4.604,3.08,3.289,4.495,75.59,-1.362,-1.01,315.2,332.5,-17.7,-0.499,0.,318.1,0,7999.,0.000,100,101.8371,10.39,12.2,10.151,13.1,186.606,8.59,10.28,185.129,0.437,3.798,4.235,5.064,7.626,10.784,12.071,2.627,-999.,-999.,6.405,-2.79,-4.08,-3.241,-2.313,0.678,0.68,0.68,0.742,0.688,0.689,0.688,0.744,0.637,0.,0.
"2014-12-10",00:17,4.552,3.091,4.583,3.083,3.295,4.499,75.53,-1.362,-1.04,315.8,332.4,-16.9,-0.457,0.,318.6,0,7999.,0.000,100,101.8363,9.47,11.51,9.103,10.75,185.598,7.416,9.98,184.256,0.438,3.804,4.255,5.068,7.629,10.788,12.068,2.633,-999.,-999.,6.415,-2.794,-4.082,-3.243,-2.279,0.678,0.68,0.679,0.741,0.687,0.691,0.688,0.741,0.638,0.,0.
"2014-12-10",00:18,4.598,3.101,4.596,3.085,3.299,4.492,75.64,-1.367,-1.046,316.1,332.3,-16.5,-0.499,0.,319.,0,7999.,0.000,100,101.8314,9.86,11.64,10.519,13.11,183.991,7.529,10.21,185.,0.438,3.791,4.251,5.074,7.619,10.778,12.075,2.633,-999.,-999.,6.415,-2.8,-4.085,-3.249,-2.241,0.678,0.68,0.679,0.744,0.688,0.689,0.689,0.741,0.636,0.,0.
"2014-12-10",00:19,4.644,3.091,4.661,3.091,3.325,4.556,75.27,-1.356,-1.016,316.4,332.4,-16.3,-0.499,0.,319.3,0,7999.,0.000,100,101.8283,11.14,12.39,11.213,12.39,191.531,8.866,11.66,192.206,0.437,3.807,4.265,5.074,7.613,10.784,12.071,2.63,-999.,-999.,6.402,-2.803,-4.087,-3.253,-2.201,0.677,0.682,0.678,0.744,0.687,0.691,0.688,0.743,0.637,0.,0.
"2014-12-10",00:20,4.66,3.097,4.638,3.085,3.321,4.549,75.29,-1.362,-1.016,316.6,332.3,-16.0,-0.499,0.,319.6,0,7999.,0.000,100,101.8278,11.07,12.95,10.08,12.31,186.667,7.857,10.67,186.796,0.438,3.794,4.242,5.077,7.629,10.784,12.071,2.633,-999.,-999.,6.412,-2.807,-4.089,-3.256,-2.156,0.679,0.68,0.679,0.742,0.688,0.689,0.687,0.745,0.637,0.,0.
"2014-12-10",00:21,4.644,3.101,4.625,3.094,3.331,4.536,75.32,-1.356,-1.034,316.6,332.4,-16.1,-0.333,0.,319.5,0,7999.,0.000,100,101.8173,10.25,11.39,10.419,11.62,186.999,7.727,9.12,185.531,0.437,3.794,4.258,5.081,7.612,10.781,12.068,2.633,-999.,-999.,6.399,-2.81,-4.092,-3.262,-2.103,0.677,0.681,0.679,0.74,0.688,0.689,0.687,0.745,0.636,0.,0.
"2014-12-10",00:22,4.637,3.084,4.619,3.087,3.335,4.517,75.48,-1.316,-1.004,316.7,332.5,-16.1,-0.374,0.,319.5,0,7999.,0.000,100,101.8121,10.99,12.89,10.123,11.94,189.467,7.964,9.34,192.384,0.438,3.811,4.264,5.077,7.629,10.781,12.072,2.633,-999.,-999.,6.405,-2.817,-4.094,-3.266,-2.043,0.678,0.681,0.679,0.742,0.688,0.69,0.688,0.739,0.637,0.,0.
"2014-12-10",00:23,4.545,3.084,4.581,3.083,3.338,9.24,70.64,-1.328,-0.998,316.7,332.5,-16.1,-0.291,0.,319.4,0,7999.,0.000,100,101.8114,10.95,13.64,7.632,9.88,189.802,7.039,8.91,189.398,0.438,3.811,4.261,5.074,7.626,10.784,12.075,2.633,-999.,-999.,6.405,-2.818,-4.095,-3.271,-1.974,0.677,0.68,0.679,0.742,0.687,0.69,0.688,0.742,0.637,0.,0.
"2014-12-10",00:24,4.483,3.078,4.525,3.08,3.328,4.437,76.04,-1.339,-1.004,316.7,332.4,-16.0,-0.249,0.,319.4,0,7999.,0.000,100,101.8057,10.78,12.7,8.718,10.09,190.139,7.312,9.66,189.07,0.438,3.814,4.261,5.074,7.616,10.791,12.068,2.633,-999.,-999.,6.399,-2.823,-4.1,-3.274,-1.911,0.677,0.681,0.678,0.745,0.687,0.689,0.687,0.746,0.636,0.,0.
"2014-12-10",00:25,4.549,3.068,4.537,3.071,3.335,4.437,76.12,-1.333,-0.98,316.6,332.5,-16.3,-0.249,0.,319.4,0,7999.,0.000,100,101.8042,11.18,12.2,9.05,11.3,188.13,6.586,9.44,186.934,0.437,3.807,4.258,5.077,7.606,10.784,12.071,2.633,-999.,-999.,6.412,-2.829,-4.103,-3.278,-1.857,0.676,0.684,0.678,0.743,0.686,0.689,0.688,0.744,0.637,0.,0.
"2014-12-10",00:26,4.437,3.075,4.5,3.08,3.328,4.414,76.28,-1.311,-0.974,317.2,332.7,-15.8,-0.208,0.,319.6,0,7999.,0.000,100,101.7959,10.35,12.58,8.987,12.33,187.86,7.729,11.05,187.405,0.437,3.801,4.252,5.084,7.616,10.778,12.071,2.633,-999.,-999.,6.402,-2.832,-4.104,-3.281,-1.815,0.677,0.681,0.678,0.741,0.688,0.689,0.688,0.74,0.638,0.,0.
"2014-12-10",00:27,4.486,3.061,4.5,3.069,3.348,4.405,76.41,-1.299,-0.962,316.8,332.5,-16.0,-0.166,0.,319.6,0,7999.,0.000,100,101.7882,11.08,13.39,9.734,10.95,185.33,7.317,10.25,185.263,0.437,3.807,4.248,5.074,7.626,10.784,12.068,2.633,-999.,-999.,6.402,-2.836,-4.109,-3.288,-1.78,0.678,0.68,0.679,0.742,0.687,0.688,0.688,0.739,0.639,0.2,0.
"2014-12-10",00:28,4.509,3.065,4.518,3.069,3.335,4.413,76.35,-1.293,-0.944,317.2,332.7,-15.8,-0.249,0.,319.8,0,7999.,0.000,100,101.7848,10.8,12.95,10.075,11.76,181.937,8.305,10.14,182.062,0.437,3.811,4.265,5.068,7.607,10.778,12.068,2.633,-999.,-999.,6.405,-2.839,-4.11,-3.291,-1.745,0.678,0.68,0.678,0.744,0.687,0.691,0.688,0.742,0.637,0.,0.
"2014-12-10",00:29,4.578,3.074,4.583,3.073,3.371,4.478,76.09,-1.276,-0.938,317.3,332.6,-15.6,-0.499,0.,319.9,0,7999.,0.000,100,101.7794,11.79,13.83,10.199,12.37,185.858,7.881,9.97,183.717,0.437,3.791,4.251,5.081,7.609,10.788,12.068,2.633,-999.,-999.,6.405,-2.843,-4.111,-3.294,-1.709,0.677,0.681,0.678,0.741,0.688,0.688,0.688,0.74,0.637,0.,0.
"2014-12-10",00:30,4.709,3.104,4.664,3.085,3.384,4.547,75.65,-1.276,-0.956,317.5,332.7,-15.5,-0.416,0.,320.2,0,7999.,0.000,100,101.776,9.82,11.83,11.31,13.36,182.938,7.675,11.,183.081,0.437,3.807,4.251,5.081,7.616,10.781,12.071,2.633,-999.,-999.,6.409,-2.847,-4.111,-3.298,-1.673,0.677,0.68,0.679,0.744,0.688,0.689,0.689,0.741,0.637,0.,0.
"2014-12-10",00:31,4.693,3.117,4.703,3.094,3.361,4.608,75.14,-1.282,-0.968,317.8,332.7,-15.2,-0.457,0.,320.3,0,7999.,0.000,100,101.7773,10.69,12.08,11.118,12.77,189.138,8.165,10.72,186.81,0.438,3.801,4.265,5.081,7.629,10.784,12.071,2.633,-999.,-999.,6.402,-2.849,-4.117,-3.301,-1.628,0.677,0.681,0.679,0.742,0.687,0.69,0.687,0.743,0.638,0.,0.
"2014-12-10",00:32,4.689,3.12,4.749,3.111,3.344,4.629,74.87,-1.293,-0.986,317.7,332.9,-15.5,-0.499,0.,320.2,0,7999.,0.000,100,101.7775,9.38,11.08,10.936,12.24,188.263,9.08,10.88,186.334,0.438,3.807,4.274,5.081,7.616,10.781,12.075,2.633,-999.,-999.,6.405,-2.85,-4.12,-3.306,-1.586,0.677,0.683,0.677,0.746,0.687,0.691,0.688,0.741,0.636,0.,0.
"2014-12-10",00:33,4.614,3.117,4.689,3.112,3.38,4.603,74.95,-1.311,-1.004,317.4,332.8,-15.7,-0.499,0.,319.7,0,7999.,0.000,100,101.7744,10.85,12.01,9.79,12.61,186.533,8.922,11.78,186.734,0.437,3.797,4.265,5.074,7.599,10.784,12.071,2.633,-999.,-999.,6.402,-2.853,-4.12,-3.309,-1.546,0.678,0.682,0.678,0.743,0.688,0.689,0.688,0.743,0.638,0.,0.
"2014-12-10",00:34,4.676,3.114,4.643,3.099,3.393,4.549,75.38,-1.311,-1.022,316.9,332.8,-16.2,-0.499,0.,319.4,0,7999.,0.000,100,101.7734,9.23,11.01,10.32,12.5,184.272,8.303,12.24,187.476,0.437,3.797,4.268,5.077,7.622,10.784,12.071,2.637,-999.,-999.,6.412,-2.856,-4.122,-3.309,-1.505,0.676,0.68,0.68,0.742,0.688,0.69,0.689,0.742,0.637,0.,0.
"2014-12-10",00:35,4.739,3.11,4.752,3.112,3.423,4.625,74.86,-1.322,-1.034,316.6,332.9,-16.6,-0.499,0.,319.3,0,7999.,0.000,100,101.7746,11.12,13.64,10.602,13.4,186.132,8.124,10.96,187.941,0.438,3.807,4.268,5.077,7.609,10.788,12.075,2.637,-999.,-999.,6.399,-2.859,-4.127,-3.314,-1.46,0.677,0.682,0.678,0.741,0.688,0.689,0.688,0.742,0.639,0.,0.
"2014-12-10",00:36,4.712,3.12,4.739,3.112,3.403,4.629,74.73,-1.35,-1.046,316.5,332.8,-16.6,-0.499,0.,319.3,0,7999.,0.000,100,101.7748,9.54,11.39,10.253,12.2,186.601,8.009,9.57,183.406,0.437,3.811,4.255,5.081,7.613,10.788,12.068,2.653,-999.,-999.,6.409,-2.859,-4.13,-3.319,-1.41,0.678,0.679,0.677,0.746,0.687,0.689,0.688,0.74,0.636,0.,0.
"2014-12-10",00:37,4.644,3.11,4.689,3.12,3.403,4.613,74.88,-1.35,-1.052,316.9,332.7,-16.1,-0.499,0.,319.6,0,7999.,0.000,100,101.7786,12.,13.45,8.77,10.79,186.338,7.949,9.49,186.801,0.437,3.814,4.278,5.074,7.619,10.784,12.075,2.653,-999.,-999.,6.412,-2.859,-4.13,-3.321,-1.36,0.679,0.68,0.678,0.744,0.688,0.689,0.687,0.747,0.638,0.,0.
"2014-12-10",00:38,4.676,3.11,4.671,3.094,3.387,4.58,75.2,-1.345,-1.028,317.6,332.9,-15.6,-0.499,0.,320.4,0,7999.,0.000,100,101.7751,10.54,12.51,9.938,12.04,188.609,8.063,11.27,188.666,0.438,3.788,4.272,5.081,7.609,10.784,12.075,2.65,-999.,-999.,6.409,-2.86,-4.132,-3.325,-1.329,0.677,0.68,0.679,0.742,0.688,0.689,0.689,0.742,0.637,0.,0.
"2014-12-10",00:39,4.627,3.104,4.665,3.116,3.407,4.574,75.14,-1.356,-1.04,319.5,332.7,-13.5,-0.291,0.,322.2,0,7999.,0.000,100,101.7707,9.77,10.64,7.742,9.2,188.134,6.307,7.61,190.337,0.437,3.801,4.271,5.081,7.605,10.784,12.065,2.656,-999.,-999.,6.402,-2.864,-4.137,-3.329,-1.307,0.676,0.685,0.678,0.742,0.688,0.689,0.689,0.74,0.638,0.,0.
"2014-12-10",00:40,4.607,3.107,4.599,3.115,3.4,4.511,75.63,-1.316,-1.01,321.7,332.8,-11.4,-0.166,0.,324.5,0,7999.,0.000,100,101.7684,8.85,10.08,8.61,11.7,184.334,5.853,8.12,189.27,0.437,3.801,4.262,5.074,7.606,10.781,12.071,2.656,-999.,-999.,6.405,-2.864,-4.14,-3.33,-1.291,0.677,0.68,0.679,0.741,0.687,0.691,0.687,0.745,0.636,0.,0.
"2014-12-10",00:41,4.64,3.114,4.636,3.101,3.39,4.532,75.52,-1.265,-0.968,324.1,332.9,-9.1,-0.042,0.,326.6,0,7999.,0.000,100,101.7684,8.48,9.14,9.172,10.66,185.066,6.715,8.8,185.468,0.437,3.807,4.262,5.081,7.616,10.781,12.075,2.663,-999.,-999.,6.412,-2.869,-4.14,-3.33,-1.27,0.676,0.681,0.679,0.74,0.687,0.69,0.688,0.742,0.637,0.,0.
"2014-12-10",00:42,4.768,3.12,4.725,3.118,3.403,4.591,75.22,-1.185,-0.908,326.2,333.4,-7.5,-0.333,0.,328.,0,7999.,0.000,100,101.7627,10.05,13.08,10.088,12.41,186.677,8.348,11.05,186.729,0.438,3.811,4.274,5.077,7.615,10.784,12.071,2.679,-999.,-999.,6.412,-2.87,-4.142,-3.336,-1.239,0.678,0.681,0.678,0.743,0.688,0.689,0.688,0.743,0.636,0.,0.
"2014-12-10",00:43,4.794,3.156,4.801,3.154,3.42,4.678,74.62,-1.151,-0.902,327.5,333.5,-6.2,-0.499,0.,329.4,0,7999.,0.000,100,101.7622,11.26,12.2,10.304,12.35,187.534,7.011,10.5,187.805,0.437,3.794,4.271,5.077,7.612,10.784,12.075,2.695,-999.,-999.,6.409,-2.869,-4.145,-3.336,-1.186,0.678,0.681,0.679,0.742,0.688,0.689,0.687,0.74,0.636,0.,0.
"2014-12-10",00:44,4.725,3.159,4.777,3.162,3.465,4.671,74.67,-1.14,-0.944,327.9,333.4,-5.7,-0.457,0.,330.,0,7999.,0.000,100,101.7627,11.48,14.33,8.801,10.52,187.263,6.675,8.34,190.604,0.437,3.797,4.278,5.077,7.602,10.781,12.071,2.699,-999.,-999.,6.415,-2.869,-4.149,-3.34,-1.101,0.677,0.679,0.678,0.742,0.687,0.69,0.687,0.747,0.636,0.,0.
"2014-12-10",00:45,4.732,3.159,4.719,3.166,3.485,4.624,75.04,-1.117,-0.938,328.4,333.7,-5.5,-0.374,0.,330.3,0,7999.,0.000,100,101.7565,9.58,11.58,9.834,12.87,185.669,8.058,9.68,184.003,0.438,3.794,4.261,5.077,7.602,10.781,12.071,2.705,-999.,-999.,6.405,-2.869,-4.149,-3.34,-0.974,0.677,0.683,0.678,0.742,0.688,0.689,0.687,0.746,0.636,0.,0.
"2014-12-10",00:46,4.794,3.166,4.78,3.16,3.492,4.671,74.75,-1.1,-0.938,328.,333.5,-5.7,-0.499,0.,330.2,0,7999.,0.000,100,101.7522,9.92,11.08,9.114,10.75,187.13,7.368,9.52,189.203,0.437,3.797,4.275,5.077,7.619,10.784,12.075,2.708,-999.,-999.,6.415,-2.869,-4.149,-3.342,-0.812,0.677,0.681,0.678,0.745,0.687,0.689,0.688,0.741,0.637,0.,0.
"2014-12-10",00:47,4.719,3.182,4.758,3.171,3.491,4.655,74.86,-1.105,-0.968,328.1,333.6,-5.6,-0.291,0.,330.3,0,7999.,0.000,100,101.7559,9.09,9.89,8.655,9.97,186.533,6.057,7.51,185.211,0.437,3.794,4.278,5.074,7.612,10.784,12.068,2.712,-999.,-999.,6.409,-2.869,-4.149,-3.344,-0.637,0.677,0.681,0.678,0.74,0.687,0.69,0.69,0.741,0.637,0.,0.
"2014-12-10",00:48,4.82,3.169,4.747,3.166,3.501,4.641,75.01,-1.094,-0.956,328.4,333.8,-5.5,-0.249,0.,330.4,0,7999.,0.000,100,101.753,8.7,10.2,9.601,11.25,182.216,6.551,9.51,182.6,0.437,3.797,4.255,5.077,7.599,10.788,12.071,2.712,-999.,-999.,6.402,-2.869,-4.154,-3.346,-0.46,0.678,0.681,0.678,0.741,0.687,0.689,0.688,0.74,0.638,0.,0.
"2014-12-10",00:49,4.755,3.179,4.791,3.175,3.501,4.679,74.69,-1.088,-0.926,327.9,333.6,-5.9,-0.208,0.,330.,0,7999.,0.000,100,101.7488,9.79,11.89,8.333,9.51,186.933,5.873,7.25,187.736,0.437,3.801,4.265,5.077,7.609,10.781,12.078,2.712,-999.,-999.,6.409,-2.869,-4.156,-3.348,-0.297,0.678,0.681,0.678,0.743,0.686,0.692,0.687,0.743,0.637,0.,0.
"2014-12-10",00:50,4.729,3.186,4.764,3.171,3.498,4.658,74.95,-1.083,-0.938,328.5,333.8,-5.4,-0.208,0.,330.2,0,7999.,0.000,100,101.7491,8.55,10.33,9.426,12.28,187.869,6.958,10.09,186.673,0.437,3.791,4.258,5.064,7.612,10.784,12.071,2.715,-999.,-999.,6.409,-2.869,-4.158,-3.35,-0.151,0.677,0.682,0.678,0.742,0.688,0.689,0.689,0.741,0.637,0.,0.
"2014-12-10",00:51,4.794,3.182,4.807,3.171,3.488,4.682,74.71,-1.06,-0.896,328.9,333.8,-5.1,-0.416,0.,330.7,0,7999.,0.000,100,101.7505,10.26,11.33,8.868,11.21,189.333,7.177,8.91,188.934,0.437,3.801,4.288,5.081,7.585,10.784,12.075,2.735,-999.,-999.,6.409,-2.868,-4.159,-3.35,-0.025,0.677,0.681,0.678,0.743,0.688,0.689,0.688,0.742,0.637,0.,0.
"2014-12-10",00:52,4.781,3.172,4.785,3.176,3.501,4.679,74.68,-1.06,-0.92,329.3,334.,-4.8,-0.291,0.,330.9,0,7999.,0.000,100,101.7432,8.77,9.76,10.532,13.37,187.534,8.008,10.02,183.808,0.437,3.797,4.259,5.071,7.592,10.784,12.071,2.738,-999.,-999.,6.415,-2.868,-4.159,-3.35,0.078,0.678,0.681,0.679,0.742,0.687,0.69,0.688,0.741,0.636,0.,0.
"2014-12-10",00:53,4.801,3.192,4.833,3.204,3.534,4.704,74.66,-1.083,-0.926,328.3,333.9,-5.8,-0.499,0.,329.9,0,7999.,0.000,100,101.7329,10.12,12.2,10.114,11.5,189.794,7.696,9.58,190.732,0.438,3.797,4.268,5.081,7.588,10.781,12.072,2.751,-999.,-999.,6.415,-2.863,-4.159,-3.35,0.181,0.677,0.681,0.677,0.744,0.689,0.689,0.688,0.743,0.637,0.,0.
"2014-12-10",00:54,4.87,3.189,4.898,3.2,3.57,4.753,74.32,-1.077,-0.944,328.,334.1,-6.2,-0.499,0.,330.,0,7999.,0.000,100,101.7233,10.45,12.08,9.427,13.93,191.468,7.813,9.73,193.543,0.437,3.791,4.282,5.077,7.592,10.784,12.071,2.748,-999.,-999.,6.405,-2.861,-4.161,-3.352,0.28,0.677,0.683,0.677,0.743,0.688,0.689,0.688,0.742,0.637,0.,0.
"2014-12-10",00:55,4.788,3.199,4.872,3.211,3.59,4.754,74.2,-1.094,-0.98,329.5,334.,-4.6,-0.499,0.,331.4,0,7999.,0.000,100,101.7252,9.31,11.7,8.459,10.72,187.738,6.357,8.17,188.26,0.437,3.801,4.271,5.074,7.609,10.784,12.075,2.767,-999.,-999.,6.415,-2.859,-4.163,-3.353,0.381,0.678,0.681,0.678,0.742,0.687,0.689,0.687,0.739,0.637,0.,0.
"2014-12-10",00:56,4.791,3.192,4.832,3.211,3.609,4.715,74.56,-1.088,-0.968,330.8,334.1,-3.4,-0.499,0.,332.6,0,7999.,0.000,100,101.7214,10.51,12.45,8.879,11.11,190.864,7.445,9.66,191.333,0.437,3.794,4.281,5.074,7.582,10.784,12.075,2.78,-999.,-999.,6.412,-2.859,-4.165,-3.351,0.486,0.678,0.681,0.678,0.742,0.687,0.689,0.688,0.741,0.636,0.,0.
"2014-12-10",00:57,4.798,3.212,4.852,3.217,3.616,4.732,74.42,-1.088,-0.968,331.5,334.1,-2.7,-0.499,0.,333.3,0,7999.,0.000,100,101.7232,9.75,11.7,8.093,10.39,190.003,6.616,8.96,193.133,0.437,3.794,4.291,5.077,7.592,10.784,12.068,2.79,-999.,-999.,6.415,-2.859,-4.169,-3.352,0.588,0.678,0.68,0.679,0.742,0.688,0.689,0.687,0.745,0.634,0.,0.
"2014-12-10",00:58,4.798,3.215,4.81,3.228,3.632,4.709,74.77,-1.088,-0.968,331.2,334.3,-3.2,-0.249,0.,333.3,0,7999.,0.000,100,101.7225,9.05,11.33,7.142,8.43,185.532,5.669,6.9,190.737,0.437,3.788,4.284,5.074,7.578,10.784,12.071,2.79,-999.,-999.,6.408,-2.856,-4.169,-3.353,0.697,0.678,0.681,0.678,0.743,0.688,0.689,0.688,0.746,0.632,0.,0.
"2014-12-10",00:59,4.765,3.225,4.76,3.229,3.635,4.669,75.16,-1.06,-0.962,331.2,334.2,-3.1,-0.208,0.,333.,0,7999.,0.000,100,101.7175,10.52,12.08,7.987,9.52,194.337,6.181,8.25,195.196,0.437,3.794,4.268,5.077,7.585,10.784,12.071,2.787,-999.,-999.,6.402,-2.852,-4.169,-3.352,0.811,0.678,0.681,0.679,0.743,0.688,0.689,0.688,0.742,0.633,0.,0.
"2014-12-10",01:00,4.784,3.205,4.772,3.228,3.635,4.667,75.28,-1.043,-0.92,330.7,334.2,-3.6,-0.249,0.,332.5,0,7999.,0.000,100,101.7138,9.95,12.01,8.567,9.91,184.789,6.219,8.19,186.585,0.437,3.794,4.275,5.074,7.602,10.784,12.071,2.79,-999.,-999.,6.405,-2.849,-4.17,-3.351,0.928,0.677,0.681,0.679,0.746,0.687,0.689,0.689,0.742,0.633,0.,0.
"2014-12-10",01:01,4.853,3.218,4.828,3.228,3.635,4.717,74.94,-1.031,-0.908,330.2,334.5,-4.4,-0.249,0.,331.8,0,7999.,0.000,100,101.709,9.17,10.2,9.03,10.85,186.4,6.925,8.88,187.666,0.437,3.794,4.262,5.077,7.592,10.784,12.071,2.79,-999.,-999.,6.408,-2.847,-4.171,-3.35,1.04,0.678,0.681,0.679,0.741,0.687,0.691,0.688,0.743,0.633,0.,0.
"2014-12-10",01:02,4.919,3.221,4.897,3.225,3.635,4.772,74.47,-1.026,-0.908,329.6,334.4,-4.9,-0.457,0.,331.2,0,7999.,0.000,100,101.7122,10.2,11.51,9.354,11.68,190.667,7.121,8.66,190.067,0.437,3.794,4.278,5.077,7.602,10.784,12.071,2.793,-999.,-999.,6.412,-2.841,-4.172,-3.35,1.142,0.678,0.681,0.678,0.744,0.688,0.689,0.687,0.744,0.633,0.,0.
"2014-12-10",01:03,4.886,3.238,4.907,3.224,3.635,4.791,74.25,-1.026,-0.908,329.8,334.7,-5.0,-0.499,0.,331.3,0,7999.,0.000,100,101.7182,10.23,11.2,9.299,10.39,188.009,7.433,9.34,188.597,0.437,3.794,4.269,5.074,7.582,10.784,12.071,2.787,-999.,-999.,6.415,-2.839,-4.178,-3.35,1.231,0.677,0.68,0.677,0.742,0.687,0.69,0.688,0.743,0.633,0.,0.
"2014-12-10",01:04,4.896,3.238,4.884,3.227,3.655,4.769,74.42,-1.048,-0.932,330.5,334.6,-4.2,-0.457,0.,332.4,0,7999.,0.000,100,101.7288,9.,10.14,9.042,10.46,188.205,6.706,8.11,188.406,0.437,3.794,4.275,5.081,7.582,10.784,12.071,2.793,-999.,-999.,6.412,-2.833,-4.179,-3.35,1.308,0.676,0.682,0.678,0.743,0.687,0.689,0.689,0.743,0.633,0.,0.
"2014-12-10",01:05,4.965,3.231,4.925,3.234,3.642,4.803,74.24,-1.06,-0.95,331.5,334.6,-3.2,-0.416,0.,333.3,0,7999.,0.000,100,101.7295,7.408,8.89,9.039,10.34,186.736,6.675,8.43,183.925,0.437,3.794,4.281,5.061,7.582,10.784,12.071,2.807,-999.,-999.,6.405,-2.828,-4.179,-3.349,1.376,0.677,0.68,0.68,0.741,0.688,0.689,0.688,0.742,0.634,0.,0.
"2014-12-10",01:06,4.961,3.241,4.967,3.238,3.635,4.853,73.75,-1.037,-0.95,332.1,334.5,-2.5,-0.457,0.,334.1,0,7999.,0.000,100,101.7273,7.333,9.14,7.474,9.23,188.262,6.17,8.76,190.524,0.437,3.794,4.274,5.061,7.582,10.784,12.071,2.82,-999.,-999.,6.398,-2.824,-4.179,-3.344,1.439,0.677,0.681,0.679,0.741,0.687,0.691,0.688,0.743,0.633,0.,0.
"2014-12-10",01:07,4.994,3.241,4.981,3.26,3.642,4.85,73.83,-1.026,-0.944,332.8,334.7,-2.0,-0.457,0.,334.4,0,7999.,0.000,100,101.7239,8.66,10.08,9.813,11.15,188.55,7.163,8.18,184.224,0.437,3.794,4.278,5.064,7.585,10.784,12.071,2.826,-999.,-999.,6.388,-2.818,-4.179,-3.345,1.5,0.677,0.68,0.679,0.744,0.687,0.691,0.687,0.748,0.632,0.,0.
"2014-12-10",01:08,5.014,3.244,5.022,3.26,3.671,4.893,73.48,-1.026,-0.932,333.2,334.9,-1.8,-0.499,0.,334.6,0,7999.,0.000,100,101.7162,9.26,11.95,9.598,12.83,194.598,7.073,9.4,190.923,0.437,3.794,4.269,5.057,7.582,10.784,12.071,2.829,-999.,-999.,6.392,-2.812,-4.18,-3.342,1.565,0.678,0.68,0.678,0.748,0.688,0.689,0.688,0.746,0.633,0.,0.
"2014-12-10",01:09,4.984,3.244,5.014,3.262,3.697,4.917,73.26,-1.048,-0.956,333.2,334.7,-1.6,-0.457,0.,335.2,0,7999.,0.000,100,101.7168,9.51,10.58,8.377,9.97,191.278,5.753,7.81,192.126,0.437,3.794,4.268,5.061,7.582,10.784,12.071,2.836,-999.,-999.,6.395,-2.807,-4.179,-3.339,1.634,0.677,0.68,0.679,0.745,0.688,0.689,0.687,0.746,0.632,0.,0.
"2014-12-10",01:10,4.978,3.254,5.028,3.27,3.707,4.912,73.31,-1.026,-0.956,334.2,335.1,-1.0,-0.374,0.,335.6,0,7999.,0.000,100,101.7117,8.7,10.26,8.373,10.87,192.332,6.667,9.89,190.,0.437,3.794,4.284,5.071,7.585,10.784,12.071,2.852,-999.,-999.,6.395,-2.799,-4.181,-3.338,1.713,0.678,0.681,0.679,0.742,0.687,0.688,0.689,0.741,0.633,0.,0.